HCJZN MRLB-SEMT

Flight info

Callsign HCJZN
Flight time 2h 4m
Altitude 27000
Route SELAK1S SELAK UZ512 LIXAS UL207 MIBAR MIBAR1
Aircraft RJ1H/M-SDFGIRWY/LB1

Departure

Time 2026-04-28 14:03
Airport Daniel Oduber Quirós International Airport (MRLB)

Arrival

Time 2026-04-28 16:07
Airport Eloy Alfaro International Airport (SEMT)
Time Latitude Longitude Altitude Speed Heading
2026-04-28 13:06 10.59961 -85.53623 251 ft 0 kts 340°
2026-04-28 13:28 10.59957 -85.53622 251 ft 3 kts 340°
2026-04-28 13:28 10.59939 -85.53615 290 ft 3 kts 340°
2026-04-28 13:28 10.59922 -85.53609 281 ft 3 kts 340°
2026-04-28 13:29 10.59904 -85.53602 281 ft 3 kts 339°
2026-04-28 13:29 10.59891 -85.53591 280 ft 3 kts 269°
2026-04-28 13:29 10.59894 -85.53574 280 ft 3 kts 295°
2026-04-28 13:29 10.59891 -85.53556 280 ft 3 kts 235°
2026-04-28 13:30 10.59887 -85.53561 280 ft 2 kts 231°
2026-04-28 13:30 10.59879 -85.53576 280 ft 0 kts 249°
2026-04-28 13:34 10.59878 -85.53578 280 ft 2 kts 249°
2026-04-28 13:34 10.59869 -85.53603 280 ft 6 kts 250°
2026-04-28 13:34 10.59868 -85.53607 280 ft 6 kts 250°
2026-04-28 13:39 10.59961 -85.53623 251 ft 0 kts 340°
2026-04-28 13:49 10.59960 -85.53623 281 ft 3 kts 340°
2026-04-28 13:49 10.59943 -85.53616 281 ft 3 kts 340°
2026-04-28 13:49 10.59925 -85.53610 281 ft 3 kts 340°
2026-04-28 13:49 10.59908 -85.53604 281 ft 3 kts 339°
2026-04-28 13:50 10.59891 -85.53595 280 ft 3 kts 323°
2026-04-28 13:50 10.59882 -85.53580 280 ft 3 kts 271°
2026-04-28 13:50 10.59885 -85.53567 280 ft 0 kts 245°
2026-04-28 13:53 10.59880 -85.53580 280 ft 4 kts 245°
2026-04-28 13:53 10.59864 -85.53619 280 ft 8 kts 250°
2026-04-28 13:54 10.59845 -85.53672 280 ft 9 kts 250°
2026-04-28 13:54 10.59819 -85.53746 280 ft 13 kts 250°
2026-04-28 13:54 10.59792 -85.53822 280 ft 0 kts 250°
2026-04-28 13:56 10.59788 -85.53835 280 ft 4 kts 250°
2026-04-28 13:56 10.59774 -85.53872 281 ft 6 kts 244°
2026-04-28 13:57 10.59741 -85.53877 280 ft 7 kts 161°
2026-04-28 13:57 10.59685 -85.53855 280 ft 10 kts 160°
2026-04-28 13:57 10.59604 -85.53826 280 ft 14 kts 167°
2026-04-28 13:57 10.59537 -85.53892 280 ft 17 kts 250°
2026-04-28 13:58 10.59494 -85.54014 270 ft 20 kts 250°
2026-04-28 13:58 10.59444 -85.54156 270 ft 23 kts 250°
2026-04-28 13:58 10.59390 -85.54312 269 ft 23 kts 250°
2026-04-28 13:58 10.59333 -85.54465 269 ft 23 kts 249°
2026-04-28 13:59 10.59279 -85.54613 270 ft 22 kts 250°
2026-04-28 13:59 10.59227 -85.54758 270 ft 21 kts 250°
2026-04-28 13:59 10.59180 -85.54893 271 ft 19 kts 250°
2026-04-28 13:59 10.59137 -85.55017 272 ft 18 kts 251°
2026-04-28 14:00 10.59099 -85.55133 273 ft 16 kts 250°
2026-04-28 14:00 10.59063 -85.55236 274 ft 15 kts 250°
2026-04-28 14:00 10.59035 -85.55345 274 ft 17 kts 276°
2026-04-28 14:00 10.59075 -85.55458 273 ft 17 kts 294°
2026-04-28 14:01 10.59116 -85.55565 281 ft 15 kts 264°
2026-04-28 14:01 10.59078 -85.55653 281 ft 12 kts 219°
2026-04-28 14:01 10.59000 -85.55653 281 ft 11 kts 162°
2026-04-28 14:01 10.58931 -85.55630 281 ft 10 kts 155°
2026-04-28 14:02 10.58924 -85.55609 281 ft 0 kts 70°
2026-04-28 14:02 10.58987 -85.55435 281 ft 59 kts 70°
2026-04-28 14:02 10.59184 -85.54884 271 ft 105 kts 70°
2026-04-28 14:02 10.59464 -85.54100 248 ft 128 kts 70°
2026-04-28 14:03 10.59779 -85.53202 434 ft 142 kts 71°
2026-04-28 14:03 10.60113 -85.52247 940 ft 139 kts 71°
2026-04-28 14:03 10.60445 -85.51272 1280 ft 156 kts 71°
2026-04-28 14:03 10.60817 -85.50250 1816 ft 156 kts 70°
2026-04-28 14:04 10.61220 -85.49160 2134 ft 177 kts 69°
2026-04-28 14:04 10.61472 -85.47879 2307 ft 194 kts 102°
2026-04-28 14:04 10.60808 -85.46697 2451 ft 200 kts 142°
2026-04-28 14:04 10.59490 -85.46221 2514 ft 210 kts 174°
2026-04-28 14:05 10.57978 -85.46105 2818 ft 220 kts 180°
2026-04-28 14:05 10.56467 -85.46119 3373 ft 220 kts 181°
2026-04-28 14:05 10.54926 -85.46119 3882 ft 222 kts 179°
2026-04-28 14:05 10.53379 -85.46041 4348 ft 224 kts 176°
2026-04-28 14:06 10.51822 -85.45890 4779 ft 225 kts 174°
2026-04-28 14:06 10.50264 -85.45671 5205 ft 227 kts 171°
2026-04-28 14:06 10.48692 -85.45403 5376 ft 234 kts 166°
2026-04-28 14:06 10.47075 -85.45109 5735 ft 237 kts 165°
2026-04-28 14:07 10.45469 -85.44753 6219 ft 236 kts 164°
2026-04-28 14:07 10.43854 -85.44373 6614 ft 237 kts 164°
2026-04-28 14:07 10.42253 -85.43994 6978 ft 239 kts 164°
2026-04-28 14:07 10.40626 -85.43603 7338 ft 241 kts 165°
2026-04-28 14:08 10.39010 -85.43218 7692 ft 242 kts 165°
2026-04-28 14:08 10.37367 -85.42824 8070 ft 243 kts 165°
2026-04-28 14:08 10.35715 -85.42436 8446 ft 244 kts 166°
2026-04-28 14:08 10.34609 -85.42181 8697 ft 245 kts 166°
2026-04-28 14:09 10.32363 -85.41669 9192 ft 251 kts 166°
2026-04-28 14:09 10.31214 -85.41403 9383 ft 260 kts 166°
2026-04-28 14:09 10.29404 -85.40976 9667 ft 273 kts 166°
2026-04-28 14:09 10.27515 -85.40533 9959 ft 285 kts 167°
2026-04-28 14:10 10.25556 -85.40081 10217 ft 292 kts 167°
2026-04-28 14:10 10.23569 -85.39625 10481 ft 293 kts 167°
2026-04-28 14:10 10.21573 -85.39168 10722 ft 294 kts 167°
2026-04-28 14:10 10.19572 -85.38709 10966 ft 297 kts 167°
2026-04-28 14:11 10.17544 -85.38245 11105 ft 300 kts 167°
2026-04-28 14:11 10.15503 -85.37779 11258 ft 300 kts 167°
2026-04-28 14:11 10.13459 -85.37310 11404 ft 301 kts 167°
2026-04-28 14:11 10.11442 -85.36845 11552 ft 302 kts 167°
2026-04-28 14:12 10.09377 -85.36370 11705 ft 309 kts 167°
2026-04-28 14:12 10.07256 -85.35879 11944 ft 317 kts 167°
2026-04-28 14:12 10.05073 -85.35376 12201 ft 324 kts 167°
2026-04-28 14:12 10.02853 -85.34860 12468 ft 330 kts 167°
2026-04-28 14:13 10.00599 -85.34338 12721 ft 335 kts 167°
2026-04-28 14:13 9.98318 -85.33808 12980 ft 339 kts 167°
2026-04-28 14:13 9.96008 -85.33271 13234 ft 342 kts 167°
2026-04-28 14:13 9.93667 -85.32725 13495 ft 346 kts 167°
2026-04-28 14:14 9.91344 -85.32185 13749 ft 348 kts 167°
2026-04-28 14:14 9.88945 -85.31625 13981 ft 351 kts 167°
2026-04-28 14:14 9.86584 -85.31077 14205 ft 353 kts 167°
2026-04-28 14:14 9.84188 -85.30522 14436 ft 354 kts 167°
2026-04-28 14:15 9.81777 -85.29963 14663 ft 356 kts 167°
2026-04-28 14:15 9.79363 -85.29406 14895 ft 357 kts 167°
2026-04-28 14:15 9.76933 -85.28848 15125 ft 358 kts 167°
2026-04-28 14:15 9.74497 -85.28290 15354 ft 359 kts 167°
2026-04-28 14:16 9.72056 -85.27731 15586 ft 360 kts 167°
2026-04-28 14:16 9.69615 -85.27161 15821 ft 361 kts 166°
2026-04-28 14:16 9.67166 -85.26591 16057 ft 361 kts 167°
2026-04-28 14:16 9.64710 -85.26026 16296 ft 362 kts 167°
2026-04-28 14:17 9.62247 -85.25464 16528 ft 363 kts 167°
2026-04-28 14:17 9.59821 -85.24901 16770 ft 363 kts 166°
2026-04-28 14:17 9.57357 -85.24321 17016 ft 364 kts 167°
2026-04-28 14:17 9.54876 -85.23752 17258 ft 365 kts 167°
2026-04-28 14:18 9.52394 -85.23185 17506 ft 365 kts 167°
2026-04-28 14:18 9.49916 -85.22615 17756 ft 366 kts 167°
2026-04-28 14:18 9.47426 -85.22031 18006 ft 366 kts 166°
2026-04-28 14:18 9.44942 -85.21457 18249 ft 366 kts 167°
2026-04-28 14:19 9.42455 -85.20867 18471 ft 367 kts 165°
2026-04-28 14:19 9.39996 -85.20190 18689 ft 367 kts 164°
2026-04-28 14:19 9.37543 -85.19468 18908 ft 367 kts 163°
2026-04-28 14:19 9.35089 -85.18730 19131 ft 367 kts 163°
2026-04-28 14:20 9.32634 -85.18004 19352 ft 368 kts 164°
2026-04-28 14:20 9.30211 -85.17285 19574 ft 368 kts 164°
2026-04-28 14:20 9.27745 -85.16573 19802 ft 368 kts 165°
2026-04-28 14:20 9.25277 -85.15872 20037 ft 368 kts 165°
2026-04-28 14:21 9.22813 -85.15174 20261 ft 367 kts 165°
2026-04-28 14:21 9.20347 -85.14475 20486 ft 367 kts 165°
2026-04-28 14:21 9.17886 -85.13777 20727 ft 367 kts 165°
2026-04-28 14:21 9.15425 -85.13074 20961 ft 367 kts 165°
2026-04-28 14:22 9.12974 -85.12369 21198 ft 366 kts 165°
2026-04-28 14:22 9.10553 -85.11673 21433 ft 366 kts 165°
2026-04-28 14:22 9.08105 -85.10966 21685 ft 365 kts 165°
2026-04-28 14:22 9.05665 -85.10260 21914 ft 364 kts 165°
2026-04-28 14:23 9.03232 -85.09552 22160 ft 363 kts 165°
2026-04-28 14:23 9.00801 -85.08841 22406 ft 362 kts 165°
2026-04-28 14:23 8.98377 -85.08130 22651 ft 361 kts 165°
2026-04-28 14:23 8.95960 -85.07441 22903 ft 360 kts 166°
2026-04-28 14:24 8.93550 -85.06763 23156 ft 359 kts 166°
2026-04-28 14:24 8.91146 -85.06086 23407 ft 358 kts 166°
2026-04-28 14:24 8.88755 -85.05410 23638 ft 356 kts 166°
2026-04-28 14:24 8.86376 -85.04718 23851 ft 355 kts 165°
2026-04-28 14:25 8.84031 -85.04043 24059 ft 353 kts 166°
2026-04-28 14:25 8.81667 -85.03368 24272 ft 352 kts 166°
2026-04-28 14:25 8.79318 -85.02696 24486 ft 350 kts 166°
2026-04-28 14:25 8.76982 -85.02025 24704 ft 348 kts 166°
2026-04-28 14:26 8.74654 -85.01356 24923 ft 346 kts 166°
2026-04-28 14:26 8.72342 -85.00689 25144 ft 344 kts 166°
2026-04-28 14:26 8.70047 -85.00024 25365 ft 342 kts 166°
2026-04-28 14:26 8.67761 -84.99359 25586 ft 340 kts 166°
2026-04-28 14:27 8.65501 -84.98701 25805 ft 336 kts 166°
2026-04-28 14:27 8.63259 -84.98068 26030 ft 333 kts 167°
2026-04-28 14:27 8.61058 -84.97452 26254 ft 330 kts 167°
2026-04-28 14:27 8.58851 -84.96824 26475 ft 328 kts 166°
2026-04-28 14:28 8.56660 -84.96196 26710 ft 325 kts 167°
2026-04-28 14:28 8.54487 -84.95580 26886 ft 325 kts 167°
2026-04-28 14:28 8.52299 -84.94964 26932 ft 329 kts 167°
2026-04-28 14:28 8.50078 -84.94329 26950 ft 333 kts 166°
2026-04-28 14:29 8.47840 -84.93676 26964 ft 337 kts 166°
2026-04-28 14:29 8.45590 -84.93029 26965 ft 342 kts 166°
2026-04-28 14:29 8.43288 -84.92353 26971 ft 347 kts 166°
2026-04-28 14:29 8.40956 -84.91660 26970 ft 351 kts 166°
2026-04-28 14:30 8.38602 -84.90938 26972 ft 356 kts 165°
2026-04-28 14:30 8.36214 -84.90217 26971 ft 361 kts 166°
2026-04-28 14:30 8.33788 -84.89494 26974 ft 365 kts 166°
2026-04-28 14:30 8.31333 -84.88762 26974 ft 370 kts 165°
2026-04-28 14:31 8.28855 -84.88007 26970 ft 374 kts 165°
2026-04-28 14:31 8.26348 -84.87259 26968 ft 378 kts 166°
2026-04-28 14:31 8.23804 -84.86502 26967 ft 383 kts 165°
2026-04-28 14:31 8.21238 -84.85720 26969 ft 387 kts 165°
2026-04-28 14:32 8.18646 -84.84947 26968 ft 391 kts 166°
2026-04-28 14:32 8.16027 -84.84167 26962 ft 395 kts 165°
2026-04-28 14:32 8.13381 -84.83363 26961 ft 398 kts 165°
2026-04-28 14:32 8.10745 -84.82582 26959 ft 402 kts 166°
2026-04-28 14:33 8.08051 -84.81772 26965 ft 406 kts 165°
2026-04-28 14:33 8.05335 -84.80949 26959 ft 409 kts 165°
2026-04-28 14:33 8.02586 -84.80140 26960 ft 412 kts 166°
2026-04-28 14:33 7.99821 -84.79312 26960 ft 416 kts 165°
2026-04-28 14:34 7.94232 -84.77642 26959 ft 422 kts 165°
2026-04-28 14:34 7.91411 -84.76794 26957 ft 424 kts 165°
2026-04-28 14:34 7.88575 -84.75936 26959 ft 427 kts 165°
2026-04-28 14:35 7.85712 -84.75089 26953 ft 430 kts 165°
2026-04-28 14:35 7.82834 -84.74225 26955 ft 432 kts 165°
2026-04-28 14:35 7.79939 -84.73352 26956 ft 435 kts 165°
2026-04-28 14:35 7.77033 -84.72493 26954 ft 436 kts 165°
2026-04-28 14:36 7.74115 -84.71629 26950 ft 437 kts 165°
2026-04-28 14:36 7.71234 -84.70764 26958 ft 437 kts 165°
2026-04-28 14:36 7.68313 -84.69884 26949 ft 437 kts 165°
2026-04-28 14:36 7.65393 -84.69006 26956 ft 437 kts 165°
2026-04-28 14:37 7.62474 -84.68153 26946 ft 437 kts 165°
2026-04-28 14:37 7.59555 -84.67289 26947 ft 437 kts 165°
2026-04-28 14:37 7.56634 -84.66416 26946 ft 437 kts 165°
2026-04-28 14:37 7.53715 -84.65539 26950 ft 437 kts 165°
2026-04-28 14:38 7.50800 -84.64664 26950 ft 438 kts 165°
2026-04-28 14:38 7.47875 -84.63786 26950 ft 438 kts 165°
2026-04-28 14:38 7.44955 -84.62911 26948 ft 438 kts 165°
2026-04-28 14:38 7.42026 -84.62051 26948 ft 438 kts 165°
2026-04-28 14:39 7.39106 -84.61184 26946 ft 438 kts 165°
2026-04-28 14:39 7.36182 -84.60313 26953 ft 438 kts 165°
2026-04-28 14:39 7.33296 -84.59450 26951 ft 438 kts 165°
2026-04-28 14:39 7.30374 -84.58577 26947 ft 438 kts 165°
2026-04-28 14:40 7.27451 -84.57704 26950 ft 438 kts 165°
2026-04-28 14:40 7.25475 -84.57114 26949 ft 438 kts 165°
2026-04-28 14:40 7.21601 -84.55957 26949 ft 438 kts 165°
2026-04-28 14:40 7.18673 -84.55084 26944 ft 438 kts 165°
2026-04-28 14:41 7.15743 -84.54210 26944 ft 439 kts 165°
2026-04-28 14:41 7.12810 -84.53352 26950 ft 440 kts 165°
2026-04-28 14:41 7.09866 -84.52487 26947 ft 441 kts 165°
2026-04-28 14:41 7.06917 -84.51614 26948 ft 441 kts 165°
2026-04-28 14:42 7.03962 -84.50736 26947 ft 441 kts 165°
2026-04-28 14:42 7.01057 -84.49872 26945 ft 441 kts 165°
2026-04-28 14:42 6.98111 -84.48996 26946 ft 441 kts 165°
2026-04-28 14:42 6.95170 -84.48121 26946 ft 441 kts 165°
2026-04-28 14:43 6.92226 -84.47248 26946 ft 440 kts 165°
2026-04-28 14:43 6.89288 -84.46376 26948 ft 440 kts 165°
2026-04-28 14:43 6.86351 -84.45507 26948 ft 440 kts 165°
2026-04-28 14:43 6.83416 -84.44638 26945 ft 440 kts 165°
2026-04-28 14:44 6.80479 -84.43770 26950 ft 440 kts 165°
2026-04-28 14:44 6.77535 -84.42900 26946 ft 440 kts 165°
2026-04-28 14:44 6.74598 -84.42032 26945 ft 440 kts 165°
2026-04-28 14:44 6.71649 -84.41161 26950 ft 440 kts 165°
2026-04-28 14:45 6.68708 -84.40293 26950 ft 440 kts 165°
2026-04-28 14:45 6.65770 -84.39427 26951 ft 440 kts 165°
2026-04-28 14:45 6.62828 -84.38560 26950 ft 440 kts 165°
2026-04-28 14:45 6.59931 -84.37696 26946 ft 440 kts 165°
2026-04-28 14:46 6.56957 -84.36804 26949 ft 440 kts 165°
2026-04-28 14:46 6.54058 -84.35946 26945 ft 440 kts 165°
2026-04-28 14:46 6.51119 -84.35081 26951 ft 440 kts 165°
2026-04-28 14:46 6.48183 -84.34215 26943 ft 440 kts 165°
2026-04-28 14:47 6.45244 -84.33330 26944 ft 440 kts 165°
2026-04-28 14:47 6.42311 -84.32460 26946 ft 440 kts 165°
2026-04-28 14:47 6.39365 -84.31592 26951 ft 441 kts 165°
2026-04-28 14:47 6.36419 -84.30726 26946 ft 441 kts 165°
2026-04-28 14:48 6.33480 -84.29844 26952 ft 441 kts 165°
2026-04-28 14:48 6.30537 -84.28971 26943 ft 440 kts 165°
2026-04-28 14:48 6.27596 -84.28103 26945 ft 440 kts 165°
2026-04-28 14:48 6.24657 -84.27239 26946 ft 440 kts 165°
2026-04-28 14:49 6.21718 -84.26361 26947 ft 440 kts 165°
2026-04-28 14:49 6.18785 -84.25494 26946 ft 440 kts 165°
2026-04-28 14:49 6.15844 -84.24627 26945 ft 440 kts 165°
2026-04-28 14:49 6.12946 -84.23757 26950 ft 440 kts 165°
2026-04-28 14:50 6.10009 -84.22887 26945 ft 440 kts 165°
2026-04-28 14:50 6.07072 -84.22022 26948 ft 440 kts 165°
2026-04-28 14:50 6.04126 -84.21153 26944 ft 440 kts 164°
2026-04-28 14:50 6.01196 -84.20274 26951 ft 440 kts 165°
2026-04-28 14:51 5.98253 -84.19407 26945 ft 440 kts 165°
2026-04-28 14:51 5.95309 -84.18543 26941 ft 440 kts 165°
2026-04-28 14:51 5.92410 -84.17677 26945 ft 440 kts 165°
2026-04-28 14:51 5.89471 -84.16808 26940 ft 440 kts 165°
2026-04-28 14:52 5.86526 -84.15944 26941 ft 440 kts 165°
2026-04-28 14:52 5.83584 -84.15062 26940 ft 440 kts 165°
2026-04-28 14:52 5.80646 -84.14199 26943 ft 440 kts 165°
2026-04-28 14:52 5.77695 -84.13370 26942 ft 440 kts 166°
2026-04-28 14:53 5.74733 -84.12551 26942 ft 440 kts 166°
2026-04-28 14:53 5.71776 -84.11741 26943 ft 440 kts 166°
2026-04-28 14:53 5.68816 -84.10934 26947 ft 440 kts 166°
2026-04-28 14:53 5.65861 -84.10130 26942 ft 440 kts 166°
2026-04-28 14:54 5.62934 -84.09335 26940 ft 440 kts 166°
2026-04-28 14:54 5.59973 -84.08518 26942 ft 440 kts 165°
2026-04-28 14:54 5.57014 -84.07691 26941 ft 440 kts 166°
2026-04-28 14:54 5.54055 -84.06879 26940 ft 440 kts 166°
2026-04-28 14:55 5.51095 -84.06070 26942 ft 440 kts 166°
2026-04-28 14:55 5.48145 -84.05241 26941 ft 440 kts 166°
2026-04-28 14:55 5.45185 -84.04425 26943 ft 440 kts 166°
2026-04-28 14:55 5.42232 -84.03618 26952 ft 440 kts 166°
2026-04-28 14:56 5.39274 -84.02804 26940 ft 441 kts 165°
2026-04-28 14:56 5.36357 -84.01985 26941 ft 441 kts 166°
2026-04-28 14:56 5.33400 -84.01173 26942 ft 441 kts 166°
2026-04-28 14:56 5.30438 -84.00364 26942 ft 441 kts 166°
2026-04-28 14:57 5.27479 -83.99556 26943 ft 441 kts 166°
2026-04-28 14:57 5.25480 -83.98996 26950 ft 441 kts 165°
2026-04-28 14:57 5.22526 -83.98176 26941 ft 440 kts 166°
2026-04-28 14:57 5.19570 -83.97365 26943 ft 440 kts 166°
2026-04-28 14:58 5.16649 -83.96569 26941 ft 440 kts 166°
2026-04-28 14:58 5.13697 -83.95752 26942 ft 440 kts 165°
2026-04-28 14:58 5.10743 -83.94925 26942 ft 440 kts 166°
2026-04-28 14:58 5.07782 -83.94112 26942 ft 440 kts 166°
2026-04-28 14:59 5.04827 -83.93304 26943 ft 440 kts 166°
2026-04-28 14:59 5.01868 -83.92495 26948 ft 440 kts 166°
2026-04-28 14:59 4.98913 -83.91687 26945 ft 440 kts 166°
2026-04-28 14:59 4.95964 -83.90858 26941 ft 440 kts 165°
2026-04-28 15:00 4.93014 -83.90041 26941 ft 440 kts 166°
2026-04-28 15:00 4.90058 -83.89230 26940 ft 440 kts 166°
2026-04-28 15:00 4.87102 -83.88424 26944 ft 440 kts 166°
2026-04-28 15:00 4.84179 -83.87625 26937 ft 440 kts 166°
2026-04-28 15:01 4.81223 -83.86805 26947 ft 439 kts 166°
2026-04-28 15:01 4.78281 -83.85995 26952 ft 439 kts 166°
2026-04-28 15:01 4.75325 -83.85184 26960 ft 439 kts 166°
2026-04-28 15:01 4.72371 -83.84371 26965 ft 439 kts 166°
2026-04-28 15:02 4.69426 -83.83551 26961 ft 440 kts 166°
2026-04-28 15:02 4.66477 -83.82741 26962 ft 440 kts 166°
2026-04-28 15:02 4.63525 -83.81932 26959 ft 439 kts 166°
2026-04-28 15:02 4.60578 -83.81113 26959 ft 439 kts 166°
2026-04-28 15:03 4.57630 -83.80305 26957 ft 439 kts 166°
2026-04-28 15:03 4.54728 -83.79494 26962 ft 439 kts 166°
2026-04-28 15:03 4.51775 -83.78686 26960 ft 439 kts 166°
2026-04-28 15:03 4.48827 -83.77878 26963 ft 439 kts 165°
2026-04-28 15:04 4.45875 -83.77051 26964 ft 439 kts 165°
2026-04-28 15:04 4.42926 -83.76247 26962 ft 439 kts 166°
2026-04-28 15:04 4.39973 -83.75442 26964 ft 439 kts 165°
2026-04-28 15:04 4.37027 -83.74616 26961 ft 439 kts 165°
2026-04-28 15:05 4.34114 -83.73817 26961 ft 439 kts 166°
2026-04-28 15:05 4.31165 -83.73011 26962 ft 439 kts 165°
2026-04-28 15:05 4.28219 -83.72188 26962 ft 439 kts 165°
2026-04-28 15:05 4.25267 -83.71383 26964 ft 439 kts 166°
2026-04-28 15:06 4.22318 -83.70567 26961 ft 439 kts 165°
2026-04-28 15:06 4.19368 -83.69749 26964 ft 439 kts 166°
2026-04-28 15:06 4.16416 -83.68950 26962 ft 439 kts 165°
2026-04-28 15:06 4.13459 -83.68130 26966 ft 439 kts 165°
2026-04-28 15:07 4.10550 -83.67322 26962 ft 439 kts 165°
2026-04-28 15:07 4.07587 -83.66519 26966 ft 439 kts 165°
2026-04-28 15:07 4.04639 -83.65704 26961 ft 439 kts 165°
2026-04-28 15:07 4.01691 -83.64889 26961 ft 439 kts 165°
2026-04-28 15:08 3.98741 -83.64083 26964 ft 439 kts 165°
2026-04-28 15:08 3.95798 -83.63269 26966 ft 439 kts 165°
2026-04-28 15:08 3.92847 -83.62456 26967 ft 439 kts 165°
2026-04-28 15:08 3.89893 -83.61652 26964 ft 439 kts 165°
2026-04-28 15:09 3.86941 -83.60836 26967 ft 439 kts 165°
2026-04-28 15:09 3.84027 -83.60030 26965 ft 439 kts 165°
2026-04-28 15:09 3.81080 -83.59227 26969 ft 439 kts 165°
2026-04-28 15:09 3.78126 -83.58414 26965 ft 439 kts 165°
2026-04-28 15:10 3.75176 -83.57598 26965 ft 439 kts 165°
2026-04-28 15:10 3.72230 -83.56790 26965 ft 439 kts 165°
2026-04-28 15:10 3.69277 -83.55980 26968 ft 439 kts 165°
2026-04-28 15:10 3.66323 -83.55166 26966 ft 439 kts 165°
2026-04-28 15:11 3.63374 -83.54355 26964 ft 439 kts 165°
2026-04-28 15:11 3.60421 -83.53555 26970 ft 439 kts 165°
2026-04-28 15:11 3.57472 -83.52743 26974 ft 439 kts 165°
2026-04-28 15:11 3.54531 -83.51927 26968 ft 439 kts 165°
2026-04-28 15:12 3.51583 -83.51112 26970 ft 439 kts 165°
2026-04-28 15:12 3.48667 -83.50317 26968 ft 439 kts 165°
2026-04-28 15:12 3.45717 -83.49512 26970 ft 439 kts 165°
2026-04-28 15:12 3.42777 -83.48700 26967 ft 439 kts 165°
2026-04-28 15:13 3.39832 -83.47887 26966 ft 439 kts 165°
2026-04-28 15:13 3.36889 -83.47081 26972 ft 439 kts 165°
2026-04-28 15:13 3.33934 -83.46273 26969 ft 438 kts 165°
2026-04-28 15:13 3.31031 -83.45475 26968 ft 438 kts 165°
2026-04-28 15:14 3.28083 -83.44662 26969 ft 439 kts 165°
2026-04-28 15:14 3.25138 -83.43853 26971 ft 438 kts 165°
2026-04-28 15:14 3.22195 -83.43044 26972 ft 438 kts 165°
2026-04-28 15:14 3.19256 -83.42236 26972 ft 438 kts 165°
2026-04-28 15:15 3.16315 -83.41428 26967 ft 439 kts 165°
2026-04-28 15:15 3.13370 -83.40619 26965 ft 438 kts 165°
2026-04-28 15:15 3.10429 -83.39813 26969 ft 439 kts 165°
2026-04-28 15:15 3.07484 -83.39005 26970 ft 439 kts 165°
2026-04-28 15:16 3.04535 -83.38196 26967 ft 439 kts 165°
2026-04-28 15:16 3.01587 -83.37388 26968 ft 439 kts 165°
2026-04-28 15:16 2.98676 -83.36593 26967 ft 439 kts 165°
2026-04-28 15:16 2.95724 -83.35788 26972 ft 439 kts 165°
2026-04-28 15:17 2.92779 -83.34984 26967 ft 439 kts 165°
2026-04-28 15:17 2.89835 -83.34183 26969 ft 439 kts 165°
2026-04-28 15:17 2.86882 -83.33380 26968 ft 439 kts 165°
2026-04-28 15:17 2.83934 -83.32580 26969 ft 439 kts 165°
2026-04-28 15:18 2.80983 -83.31781 26970 ft 439 kts 165°
2026-04-28 15:18 2.78028 -83.30981 26971 ft 439 kts 165°
2026-04-28 15:18 2.75076 -83.30179 26976 ft 439 kts 165°
2026-04-28 15:18 2.72171 -83.29371 26972 ft 439 kts 164°
2026-04-28 15:19 2.69208 -83.28555 26968 ft 439 kts 165°
2026-04-28 15:19 2.66259 -83.27755 26968 ft 439 kts 165°
2026-04-28 15:19 2.63315 -83.26945 26968 ft 439 kts 164°
2026-04-28 15:19 2.60364 -83.26128 26975 ft 439 kts 165°
2026-04-28 15:20 2.57407 -83.25326 26970 ft 439 kts 165°
2026-04-28 15:20 2.54463 -83.24520 26977 ft 439 kts 164°
2026-04-28 15:20 2.51523 -83.23703 26976 ft 439 kts 165°
2026-04-28 15:20 2.48612 -83.22914 26976 ft 439 kts 165°
2026-04-28 15:21 2.45663 -83.22101 26974 ft 439 kts 164°
2026-04-28 15:21 2.42720 -83.21288 26981 ft 439 kts 165°
2026-04-28 15:21 2.39768 -83.20486 26971 ft 439 kts 164°
2026-04-28 15:21 2.36821 -83.19667 26976 ft 440 kts 164°
2026-04-28 15:22 2.33871 -83.18862 26973 ft 440 kts 165°
2026-04-28 15:22 2.30914 -83.18054 26973 ft 440 kts 164°
2026-04-28 15:22 2.27965 -83.17235 26974 ft 440 kts 164°
2026-04-28 15:22 2.25015 -83.16428 26979 ft 440 kts 164°
2026-04-28 15:23 2.22094 -83.15631 26972 ft 439 kts 164°
2026-04-28 15:23 2.19144 -83.14820 26979 ft 439 kts 164°
2026-04-28 15:23 2.16196 -83.14007 26978 ft 439 kts 164°
2026-04-28 15:23 2.13248 -83.13201 26980 ft 439 kts 164°
2026-04-28 15:24 2.10297 -83.12394 26982 ft 439 kts 164°
2026-04-28 15:24 2.07348 -83.11584 26978 ft 439 kts 164°
2026-04-28 15:24 2.04404 -83.10777 26982 ft 439 kts 164°
2026-04-28 15:24 2.01452 -83.09968 26977 ft 440 kts 164°
2026-04-28 15:25 1.98497 -83.09157 26976 ft 440 kts 164°
2026-04-28 15:25 1.95548 -83.08351 26979 ft 440 kts 164°
2026-04-28 15:25 1.92594 -83.07543 26980 ft 440 kts 164°
2026-04-28 15:25 1.89640 -83.06731 26981 ft 440 kts 164°
2026-04-28 15:26 1.86722 -83.05928 26979 ft 440 kts 164°
2026-04-28 15:26 1.83771 -83.05119 26976 ft 440 kts 164°
2026-04-28 15:26 1.80814 -83.04311 26973 ft 440 kts 164°
2026-04-28 15:26 1.77857 -83.03503 26970 ft 440 kts 164°
2026-04-28 15:27 1.74911 -83.02697 26982 ft 440 kts 164°
2026-04-28 15:27 1.71956 -83.01890 26974 ft 440 kts 164°
2026-04-28 15:27 1.69006 -83.01084 26976 ft 440 kts 164°
2026-04-28 15:27 1.66048 -83.00278 26980 ft 440 kts 164°
2026-04-28 15:28 1.63091 -82.99472 26976 ft 440 kts 164°
2026-04-28 15:28 1.60172 -82.98678 26976 ft 440 kts 164°
2026-04-28 15:28 1.57211 -82.97873 26983 ft 440 kts 164°
2026-04-28 15:28 1.54259 -82.97073 26981 ft 440 kts 164°
2026-04-28 15:29 1.51305 -82.96272 26977 ft 440 kts 164°
2026-04-28 15:29 1.48346 -82.95466 26976 ft 440 kts 163°
2026-04-28 15:29 1.45534 -82.94294 26982 ft 438 kts 149°
2026-04-28 15:29 1.42928 -82.92723 26986 ft 439 kts 147°
2026-04-28 15:30 1.40327 -82.91114 26988 ft 439 kts 148°
2026-04-28 15:30 1.37754 -82.89480 26981 ft 438 kts 144°
2026-04-28 15:30 1.35331 -82.87628 26981 ft 438 kts 139°
2026-04-28 15:30 1.33051 -82.85604 26988 ft 438 kts 136°
2026-04-28 15:31 1.30845 -82.83508 26985 ft 438 kts 135°
2026-04-28 15:31 1.28688 -82.81410 26981 ft 438 kts 135°
2026-04-28 15:31 1.26514 -82.79278 26981 ft 438 kts 135°
2026-04-28 15:31 1.24332 -82.77153 26982 ft 438 kts 135°
2026-04-28 15:32 1.22133 -82.75038 26980 ft 438 kts 135°
2026-04-28 15:32 1.20677 -82.73643 26981 ft 438 kts 136°
2026-04-28 15:32 1.17729 -82.70827 26983 ft 438 kts 136°
2026-04-28 15:32 1.15514 -82.68725 26981 ft 438 kts 136°
2026-04-28 15:33 1.13296 -82.66626 26980 ft 438 kts 136°
2026-04-28 15:33 1.11112 -82.64551 26980 ft 438 kts 136°
2026-04-28 15:33 1.08905 -82.62453 26979 ft 438 kts 136°
2026-04-28 15:33 1.06696 -82.60352 26985 ft 438 kts 136°
2026-04-28 15:34 1.04487 -82.58258 26983 ft 438 kts 136°
2026-04-28 15:34 1.02275 -82.56160 26982 ft 438 kts 136°
2026-04-28 15:34 1.00060 -82.54056 26984 ft 438 kts 136°
2026-04-28 15:34 0.97848 -82.51956 26984 ft 439 kts 136°
2026-04-28 15:35 0.95635 -82.49856 26984 ft 438 kts 136°
2026-04-28 15:35 0.91213 -82.45659 26983 ft 438 kts 136°
2026-04-28 15:35 0.89000 -82.43560 26990 ft 439 kts 135°
2026-04-28 15:36 0.86788 -82.41462 26983 ft 438 kts 136°
2026-04-28 15:36 0.84602 -82.39388 26986 ft 438 kts 136°
2026-04-28 15:36 0.82392 -82.37292 26987 ft 438 kts 135°
2026-04-28 15:36 0.80179 -82.35194 26986 ft 438 kts 135°
2026-04-28 15:37 0.77966 -82.33096 26989 ft 438 kts 135°
2026-04-28 15:37 0.75753 -82.30999 26985 ft 438 kts 135°
2026-04-28 15:37 0.73538 -82.28901 26984 ft 438 kts 135°
2026-04-28 15:37 0.72070 -82.27511 26985 ft 439 kts 135°
2026-04-28 15:38 0.69098 -82.24695 26991 ft 439 kts 135°
2026-04-28 15:38 0.66883 -82.22599 26989 ft 439 kts 135°
2026-04-28 15:38 0.64665 -82.20499 26990 ft 439 kts 135°
2026-04-28 15:38 0.62473 -82.18425 26985 ft 439 kts 135°
2026-04-28 15:39 0.60253 -82.16321 26987 ft 439 kts 135°
2026-04-28 15:39 0.58034 -82.14220 26984 ft 439 kts 135°
2026-04-28 15:39 0.55815 -82.12119 26990 ft 439 kts 135°
2026-04-28 15:39 0.53592 -82.10014 26986 ft 439 kts 135°
2026-04-28 15:40 0.51371 -82.07911 26989 ft 439 kts 135°
2026-04-28 15:40 0.49158 -82.05812 26988 ft 439 kts 135°
2026-04-28 15:40 0.46942 -82.03708 26991 ft 439 kts 135°
2026-04-28 15:40 0.44729 -82.01608 26994 ft 439 kts 135°
2026-04-28 15:41 0.42542 -81.99532 26992 ft 439 kts 135°
2026-04-28 15:41 0.40333 -81.97435 26987 ft 438 kts 135°
2026-04-28 15:41 0.38118 -81.95332 26988 ft 439 kts 135°
2026-04-28 15:41 0.35904 -81.93229 26988 ft 439 kts 135°
2026-04-28 15:42 0.33687 -81.91122 26991 ft 439 kts 135°
2026-04-28 15:42 0.31472 -81.89017 26991 ft 439 kts 135°
2026-04-28 15:42 0.29252 -81.86908 26990 ft 439 kts 135°
2026-04-28 15:42 0.27038 -81.84804 26992 ft 439 kts 135°
2026-04-28 15:43 0.24822 -81.82697 26989 ft 439 kts 135°
2026-04-28 15:43 0.22608 -81.80591 26991 ft 439 kts 135°
2026-04-28 15:43 0.20465 -81.78550 26990 ft 439 kts 135°
2026-04-28 15:43 0.18254 -81.76445 26989 ft 440 kts 135°
2026-04-28 15:44 0.16066 -81.74362 26989 ft 440 kts 135°
2026-04-28 15:44 0.13854 -81.72255 26988 ft 440 kts 135°
2026-04-28 15:44 0.11640 -81.70147 26993 ft 440 kts 135°
2026-04-28 15:44 0.09836 -81.68429 26986 ft 440 kts 135°
2026-04-28 15:45 0.08025 -81.66709 26992 ft 440 kts 135°
2026-04-28 15:45 0.05803 -81.64604 26989 ft 440 kts 135°
2026-04-28 15:45 0.03583 -81.62502 26990 ft 440 kts 135°
2026-04-28 15:45 0.01367 -81.60400 26987 ft 439 kts 135°
2026-04-28 15:46 -0.00847 -81.58295 28214 ft 442 kts 136°
2026-04-28 15:46 -0.03109 -81.56146 27596 ft 447 kts 137°
2026-04-28 15:46 -0.05337 -81.54056 27310 ft 432 kts 137°
2026-04-28 15:46 -0.07497 -81.52027 26853 ft 423 kts 137°
2026-04-28 15:47 -0.08904 -81.50686 26466 ft 420 kts 136°
2026-04-28 15:47 -0.11003 -81.48677 25880 ft 415 kts 136°
2026-04-28 15:47 -0.13086 -81.46708 25283 ft 410 kts 137°
2026-04-28 15:47 -0.15141 -81.44744 24679 ft 407 kts 136°
2026-04-28 15:48 -0.17793 -81.42125 23884 ft 402 kts 135°
2026-04-28 15:48 -0.19113 -81.40788 23481 ft 399 kts 135°
2026-04-28 15:48 -0.21052 -81.38815 22886 ft 395 kts 135°
2026-04-28 15:48 -0.22983 -81.36871 22294 ft 392 kts 135°
2026-04-28 15:49 -0.24874 -81.34971 21712 ft 388 kts 135°
2026-04-28 15:49 -0.26769 -81.33068 21126 ft 385 kts 135°
2026-04-28 15:49 -0.28648 -81.31182 20545 ft 381 kts 135°
2026-04-28 15:49 -0.30510 -81.29313 19963 ft 378 kts 135°
2026-04-28 15:50 -0.32363 -81.27450 19137 ft 380 kts 135°
2026-04-28 15:50 -0.34230 -81.25576 18483 ft 378 kts 135°
2026-04-28 15:50 -0.36074 -81.23722 17872 ft 373 kts 135°
2026-04-28 15:50 -0.37891 -81.21896 17253 ft 369 kts 135°
2026-04-28 15:51 -0.39693 -81.20082 16630 ft 365 kts 135°
2026-04-28 15:51 -0.41475 -81.18287 16007 ft 362 kts 135°
2026-04-28 15:51 -0.43242 -81.16510 15380 ft 359 kts 135°
2026-04-28 15:51 -0.44992 -81.14745 14725 ft 356 kts 135°
2026-04-28 15:52 -0.46730 -81.12995 14118 ft 352 kts 135°
2026-04-28 15:52 -0.48446 -81.11262 13507 ft 349 kts 135°
2026-04-28 15:52 -0.50133 -81.09563 12900 ft 346 kts 135°
2026-04-28 15:52 -0.51829 -81.07879 12288 ft 342 kts 135°
2026-04-28 15:53 -0.53504 -81.06198 11681 ft 339 kts 135°
2026-04-28 15:53 -0.55161 -81.04530 11081 ft 337 kts 135°
2026-04-28 15:53 -0.56779 -81.02897 10832 ft 323 kts 135°
2026-04-28 15:53 -0.58338 -81.01352 10711 ft 308 kts 136°
2026-04-28 15:54 -0.59818 -80.99870 10596 ft 294 kts 135°
2026-04-28 15:54 -0.61231 -80.98445 10450 ft 284 kts 135°
2026-04-28 15:54 -0.62613 -80.97060 10133 ft 281 kts 136°
2026-04-28 15:54 -0.63998 -80.95684 9747 ft 280 kts 135°
2026-04-28 15:55 -0.65385 -80.94284 9224 ft 284 kts 135°
2026-04-28 15:55 -0.66773 -80.92882 8850 ft 282 kts 135°
2026-04-28 15:55 -0.68156 -80.91508 8473 ft 280 kts 136°
2026-04-28 15:55 -0.69499 -80.90143 8094 ft 278 kts 131°
2026-04-28 15:56 -0.70394 -80.88423 7680 ft 277 kts 106°
2026-04-28 15:56 -0.70858 -80.86584 7299 ft 276 kts 104°
2026-04-28 15:56 -0.71296 -80.84721 6930 ft 275 kts 103°
2026-04-28 15:56 -0.71704 -80.82857 6557 ft 273 kts 102°
2026-04-28 15:57 -0.72103 -80.81006 6190 ft 272 kts 103°
2026-04-28 15:57 -0.72507 -80.79164 5827 ft 270 kts 103°
2026-04-28 15:57 -0.72921 -80.77332 5464 ft 269 kts 103°
2026-04-28 15:57 -0.73344 -80.75515 5104 ft 268 kts 103°
2026-04-28 15:58 -0.73769 -80.73711 4748 ft 266 kts 104°
2026-04-28 15:58 -0.74192 -80.71917 4393 ft 265 kts 104°
2026-04-28 15:58 -0.74624 -80.70164 4310 ft 253 kts 104°
2026-04-28 15:58 -0.75038 -80.68506 4290 ft 240 kts 104°
2026-04-28 15:59 -0.75425 -80.66927 4254 ft 229 kts 104°
2026-04-28 15:59 -0.75789 -80.65415 4220 ft 219 kts 104°
2026-04-28 15:59 -0.76150 -80.63964 4153 ft 212 kts 104°
2026-04-28 15:59 -0.76500 -80.62562 3998 ft 202 kts 104°
2026-04-28 16:00 -0.76827 -80.61249 3679 ft 194 kts 104°
2026-04-28 16:00 -0.77152 -80.59948 3560 ft 192 kts 104°
2026-04-28 16:00 -0.77482 -80.58657 3527 ft 190 kts 111°
2026-04-28 16:00 -0.78263 -80.57623 3175 ft 191 kts 139°
2026-04-28 16:01 -0.79304 -80.56784 2761 ft 192 kts 144°
2026-04-28 16:01 -0.80385 -80.56019 2584 ft 189 kts 147°
2026-04-28 16:01 -0.81475 -80.55297 2522 ft 186 kts 148°
2026-04-28 16:01 -0.82552 -80.54598 2502 ft 179 kts 148°
2026-04-28 16:02 -0.83632 -80.54227 2449 ft 162 kts 188°
2026-04-28 16:02 -0.84629 -80.54679 2480 ft 154 kts 212°
2026-04-28 16:02 -0.85464 -80.55216 2454 ft 131 kts 216°
2026-04-28 16:02 -0.86155 -80.55797 2162 ft 129 kts 225°
2026-04-28 16:03 -0.86740 -80.56455 2035 ft 123 kts 232°
2026-04-28 16:03 -0.87245 -80.57131 1996 ft 120 kts 234°
2026-04-28 16:03 -0.87721 -80.57820 1992 ft 121 kts 236°
2026-04-28 16:03 -0.88186 -80.58519 1986 ft 122 kts 236°
2026-04-28 16:04 -0.88664 -80.59241 1832 ft 125 kts 236°
2026-04-28 16:04 -0.89149 -80.59959 1675 ft 125 kts 236°
2026-04-28 16:04 -0.89636 -80.60676 1515 ft 124 kts 236°
2026-04-28 16:04 -0.90128 -80.61387 1353 ft 124 kts 235°
2026-04-28 16:05 -0.90624 -80.62094 1191 ft 124 kts 235°
2026-04-28 16:05 -0.91122 -80.62802 1026 ft 124 kts 235°
2026-04-28 16:05 -0.91612 -80.63510 853 ft 124 kts 235°
2026-04-28 16:05 -0.92102 -80.64217 694 ft 124 kts 235°
2026-04-28 16:06 -0.92592 -80.64920 544 ft 123 kts 235°
2026-04-28 16:06 -0.93076 -80.65623 377 ft 122 kts 237°
2026-04-28 16:06 -0.93534 -80.66318 216 ft 121 kts 235°
2026-04-28 16:06 -0.94008 -80.67007 61 ft 116 kts 236°
2026-04-28 16:07 -0.94430 -80.67622 50 ft 97 kts 235°
2026-04-28 16:07 -0.94727 -80.68052 48 ft 65 kts 234°
2026-04-28 16:07 -0.95008 -80.68379 47 ft 17 kts 190°
2026-04-28 16:08 -0.95121 -80.68402 46 ft 13 kts 192°
2026-04-28 16:08 -0.95173 -80.68418 46 ft 5 kts 152°
2026-04-28 16:08 -0.95208 -80.68395 47 ft 6 kts 145°
2026-04-28 16:09 -0.95213 -80.68391 47 ft 0 kts 145°